Zurück zum Katalog

HATEF 1

AktivKommunikationLEO
NORAD 58852·PAYLOAD·🇮🇷 Iran
Dieser Satellitenname wurde noch nicht durch offizielle Quellen bestätigt.

Gestartet Jan 28, 2024 von Semnan Space Center

Loading…

Nächste Überflüge (nächste 24 Stunden)

TLE

AktuellSource: Space-Track

Epoche: Sep 14, 2026, 14:51 UTC

1 58852U 24018D   26257.61922914  .00002820  00000-0  27535-3 0  9996
2 58852  58.6686 219.4134 0353926 233.0470 123.7672 14.58190403139062

Verfolge HATEF 1 in Echtzeit mit AllMySat

Download on the App Store